Location: Spruce Knob
(38.6995°N, 79.5330°W)
Time: 21:05:13
(UTC-04:00)

A-11 Canister half - Pass Details

Date: 02 February 2022
Orbit: 1513 x 1686 km, 47.2° (Epoch: 26 May)

Event Time Altitude Azimuth Distance (km) Brightness Sun altitude
Rises 23:27:11 0° 288° (WNW) 4,659 11.8 -63.7°
Enters shadow 23:29:03 - 281° (W) 4,228 11.5 -63.9°
Reaches altitude 10° 23:32:06 10° 266° (W) 3,667 - -64.3°
Maximum altitude 23:36:26 14° 237° (WSW) 3,331 - -64.7°
Drops below altitude 10° 23:40:49 10° 208° (SSW) 3,674 - -65.2°
Sets 23:45:48 0° 185° (S) 4,673 - -65.6°
